ONEWEB-0021, 45134

Orbit data source: Space-Track

ONEWEB-0021, 45134 is a payload satellite owned by One Web (UK) in LEO that was launched on Thu, 06 Feb 2020 UTC via a SOYUZ-2-1B launch vehicle from the Tyuratam Missile And Space Complex (TTMTR). Payload-class satellites include a variety of spacecraft equipped with specific instruments for various scientific and technological missions. These include communications satellites like Starlink; space stations such as the ISS; scientific satellites like the Hubble; Earth observation satellites from companies like Planet Labs, Umbra, and HawkEye 360; GPS; miniature CubeSats for education and research; and military/defense satellites.

Loading next visibility...
Identifier
45134, 2020-008D
Orbit
LEO
Country
Flag of UKUK
Related business
Manufacturer
One Web
Mission
Operational Commercial Communications
Bus & Motor
ARROW, Unknown motor
Mass
148 kg wet, ~140 kg dry
Launch date (UTC)
2020-02-06 (6 years ago)
Launch vehicle
SOYUZ-2-1B
Launch site
Tyuratam Missile And Space Complex (TTMTR)
Object type
Payload
Rocket body
Debris
Shape & HBR
Trap Box + 2 Pan, 6.7 m
Radar Cross Section
3.464 m², Large (>1 m²)

Expand to show TLE details & history
Last TLE update: 21 hours ago

TLE from 21 hours ago
0 ONEWEB-0021
1 45134U 20008D   25288.86986066  .00000063  00000-0  14530-3 0  9996
2 45134  87.8754  84.9998 0001566  95.4391 264.6915 13.10375955276652
Epoch: 2025-10-15T20:52Z
TLE epoch observation values (Epoch: 2025-10-15T20:52:35.961Z)
Latitude
Longitude
107.21222°
Altitude
1,224.703 km
Speed
7.242 km/s
True Right ascension
05h 39m 59s
True Declination
0° 00' 00"
Sunlit
Object was in daylight at epoch
Visualization orbit readout
Latitude
Unknown
Longitude
Unknown
Altitude
Unknown
Speed
Unknown
Apparent Right ascension
Unknown
Apparent Declination
Unknown
Sunlit
N/A
Visualization observer readout
Local Sidereal Time
12:35:08
Azimuth
Unknown
Elevation
Unknown
Doppler factor
Unknown
Orbital elements
Apogee altitude
1,220.015 km
Perigee altitude
1,217.635 km
Semi-major axis
7,596.962 km
Eccentricity
0.00016
Inclination
87.8754°
RAAN
84.9998°
Arg. of periapsis
95.4391°
True anomaly
264.67363°
Mean anomaly
264.6915°
Eccentric anomaly
264.68257°
Mean motion
3.27781 °/min
Orbital period
109.83 mins
BSTAR
0.0001453
Loading maneuver chart data...
Computing Atmospheric mass density...
Loading historical data...
Loading historical data...
Loading historical data...
Loading historical data...
Loading historical data...
Loading historical data...
Loading historical data...

Documentation

Showing up to 5 results
|